Outwar Torax TimeFrame

Torax TimeFrame

95 Gods Updated: 2019-02-20 05:15:01
NameTime LeftWindow Opens
Old World Drake41d 18:432019-01-09 11:37:00
Kro Shuk, Doomslayer1d 11:172019-02-18 19:03:00
Xynak, the Arcane Master1d 07:092019-02-18 23:11:00
Windstrike The Vile0d 22:542019-02-19 07:26:00
Samatha Dark-Soul0d 19:452019-02-19 10:35:00
Threk, King of Lords0d 17:092019-02-19 13:11:00
Jazzmin, Maiden of Vitality0d 17:082019-02-19 13:12:00
Nayark the Mummified Sorcerer0d 15:562019-02-19 14:24:00
Ag Nabak the Abomination0d 15:132019-02-19 15:07:00
Sarcrina the Astral Priestess0d 13:172019-02-19 17:03:00
Lady Chaos, Queen of the Abyss0d 07:162019-02-19 23:04:00
Baron Mu, Dark Rider of the Undead0d 06:592019-02-19 23:21:00
Great Lord Ganeshan0d 05:382019-02-20 00:42:00
Q-SEC Commander0d 05:222019-02-20 00:58:00
Quiver, The Renegade0d 03:452019-02-20 02:35:00
Gnorb0d 03:182019-02-20 03:02:00
Synge, The Red Dragon0d 02:492019-02-20 03:31:00
Detox0d 02:462019-02-20 03:34:00
Anvilfist0d 02:432019-02-20 03:37:00
Howldroid, Tormentor of the Pit0d 01:252019-02-20 04:55:00
Lord Varan0d 00:192019-02-20 06:01:00
Freezebreed, The Frozen Manipulator0d 01:042019-02-20 07:25:00
Karvaz, Lord of Alsayic0d 01:522019-02-20 08:13:00
Ebliss, Fallen Angel of Despair0d 02:072019-02-20 08:28:00
Shadow0d 03:502019-02-20 10:11:00
Crolvak, the Fire Master0d 03:542019-02-20 10:15:00
Murderface0d 04:582019-02-20 11:19:00
Ormsul the Putrid0d 06:162019-02-20 12:37:00
Zikkir the Dark Archer0d 06:292019-02-20 12:50:00
Jorun the Blazing Swordsman0d 06:582019-02-20 13:19:00
Amalgamated Apparition0d 08:422019-02-20 15:03:00
Crane0d 12:202019-02-20 18:41:00
Nessam0d 12:212019-02-20 18:42:00
Archdevil Yirkon0d 12:252019-02-20 18:46:00
Varsanor, Master of Darkness0d 12:312019-02-20 18:52:00
Pinosis0d 12:332019-02-20 18:54:00
Gorganus of the Wood0d 13:432019-02-20 20:04:00
Garland, The Lord Keeper0d 14:552019-02-20 21:16:00
Rancid, Lord of Thugs0d 15:042019-02-20 21:25:00
Tylos, The Lord Master0d 15:182019-02-20 21:39:00
Hyrak, Bringer of Nightmares0d 15:232019-02-20 21:44:00
Vitkros, Hydra of the Deep0d 15:572019-02-20 22:18:00
Akkel the Enflamed Warrior0d 16:002019-02-20 22:21:00
Esquin, the Kinetic Master0d 16:092019-02-20 22:30:00
Mistress of the Sword0d 17:372019-02-20 23:58:00
Dreg nor, Keeper of the Infernal Essence0d 18:102019-02-21 00:31:00
Smoot the Yeti0d 18:412019-02-21 01:02:00
The Emerald Assassin0d 18:482019-02-21 01:09:00
Tsort0d 20:002019-02-21 02:21:00
Nafir, God of Desolation0d 23:422019-02-21 06:03:00
Zertan, The Collector1d 00:542019-02-21 07:15:00
Melt Bane, The Forbidden Demon Dragon1d 01:562019-02-21 08:17:00
Volgan the Living Ironbark1d 03:172019-02-21 09:38:00
Rotborn, Eater of the Dead1d 05:102019-02-21 11:31:00
Brutalitar, Lord of the Underworld1d 05:362019-02-21 11:57:00
Kretok, Descendant of Nature1d 06:022019-02-21 12:23:00
Lord Sibannac1d 06:092019-02-21 12:30:00
Ancient Magus Tarkin1d 07:262019-02-21 13:47:00
Ganja the Stone Golem1d 08:142019-02-21 14:35:00
Lacuste of the Swarm1d 08:462019-02-21 15:07:00
Lord Narada1d 10:402019-02-21 17:01:00
Emperor Neudeus, Controller of the Universe1d 11:342019-02-21 17:55:00
Numerocure, The Black Messenger of Evil1d 14:362019-02-21 20:57:00
Lady Ariella1d 14:582019-02-21 21:19:00
Skarthul the Avenged1d 15:332019-02-21 21:54:00
King Ashnar, Lord of the Unliving1d 15:512019-02-21 22:12:00
Nar Zhul, Slayer of All1d 19:482019-02-22 02:09:00
Hackerphage, Protector of the Gateway1d 20:262019-02-22 02:47:00
Anguish1d 21:342019-02-22 03:55:00
Bloodchill the Grizzly1d 22:432019-02-22 05:04:00
Skybrine The Inescapable2d 01:522019-02-22 08:13:00
Keeper of Nature2d 01:572019-02-22 08:18:00
Terrance, Rebel of Rallis2d 03:102019-02-22 09:31:00
Traxodon the Plaguebringer2d 04:262019-02-22 10:47:00
Grivvek, Protector of the Brood2d 07:332019-02-22 13:54:00
Lord Suka2d 08:202019-02-22 14:41:00
Lord Xordam2d 16:522019-02-22 23:13:00
Crantos, Defender of Ultimation2d 17:542019-02-23 00:15:00
Slashbrood, Devourer of the Blackness2d 20:182019-02-23 02:39:00
Straya, the Underworld Ruler2d 22:032019-02-23 04:24:00
Balerion, Dragon of Dread3d 08:302019-02-23 14:51:00
Viserion, the Necrodragon3d 10:482019-02-23 17:09:00
Sylvanna TorLai3d 15:412019-02-23 22:02:00
Bolkor, the Holy Master3d 16:102019-02-23 22:31:00
Sigil, Lich of Woe3d 17:332019-02-23 23:54:00
Dlanod, the Crazed Chancellor3d 20:252019-02-24 02:46:00
Raiyar, the Shadow Master4d 07:122019-02-24 13:33:00
Felroc, Overseer of Hellfire4d 16:102019-02-24 22:31:00
Shaik, Servant of Arkron228d 00:372018-07-07 05:43:00
Rook, Hand of Arkron226d 03:122018-07-09 03:08:00
Animated Captain41d 18:502019-01-09 11:30:00
Jade Dragonite41d 17:382019-01-09 12:42:00
Wanhiroeaz the Devourer15d 20:312019-02-04 09:49:00
Noxious Slug7d 04:302019-02-13 01:50:00
Beast of Cards6d 14:592019-02-13 15:21:00